Time,TemperatureF,DewpointF,PressureIn,WindDirection,WindDirectionDegrees,WindSpeedMPH,WindSpeedGustMPH,Humidity,HourlyPrecipIn,Conditions,Clouds,dailyrainin,SolarRadiationWatts/m^2,SoftwareType,DateUTC
2013-03-13 00:00:00,45.2,38.4,29.89,ENE,67,7.0,7.0,77,0.00,,,0.51,0,Wunderground v.1.15,2013-03-13 04:00:00,
2013-03-13 00:05:00,45.2,38.1,29.90,NE,53,8.0,9.0,76,0.00,,,0.00,0,Wunderground v.1.15,2013-03-13 04:05:00,
2013-03-13 00:14:00,45.1,38.0,29.90,East,92,7.0,10.0,76,0.00,,,0.00,0,Wunderground v.1.15,2013-03-13 04:14:00,
2013-03-13 00:20:00,45.1,37.6,29.90,ENE,69,7.0,8.0,75,0.00,,,0.00,0,Wunderground v.1.15,2013-03-13 04:20:00,
2013-03-13 00:24:00,45.0,37.6,29.90,ENE,69,7.0,8.0,75,0.00,,,0.00,0,Wunderground v.1.15,2013-03-13 04:24:00,
2013-03-13 00:34:00,44.8,37.0,29.90,ENE,58,8.0,12.0,74,0.00,,,0.00,0,Wunderground v.1.15,2013-03-13 04:34:00,
2013-03-13 00:44:00,44.5,36.4,29.90,ENE,58,7.0,8.0,73,0.00,,,0.00,0,Wunderground v.1.15,2013-03-13 04:44:00,
2013-03-13 00:54:00,44.3,36.2,29.90,NE,52,8.0,8.0,73,0.00,,,0.00,0,Wunderground v.1.15,2013-03-13 04:54:00,
2013-03-13 01:00:00,44.3,35.8,29.90,NE,54,9.0,9.0,72,0.00,,,0.00,0,Wunderground v.1.15,2013-03-13 05:00:00,
2013-03-13 01:10:00,44.1,35.6,29.91,NE,55,8.0,8.0,72,0.00,,,0.00,0,Wunderground v.1.15,2013-03-13 05:10:00,
2013-03-13 01:19:00,44.0,35.9,29.91,NE,56,8.0,8.0,73,0.00,,,0.00,0,Wunderground v.1.15,2013-03-13 05:19:00,
2013-03-13 01:24:00,44.0,35.9,29.91,NE,54,8.0,8.0,73,0.00,,,0.00,0,Wunderground v.1.15,2013-03-13 05:24:00,
2013-03-13 01:34:00,43.8,36.0,29.91,NE,44,7.0,8.0,74,0.00,,,0.00,0,Wunderground v.1.15,2013-03-13 05:34:00,
2013-03-13 01:39:00,43.6,35.9,29.91,NE,46,5.0,9.0,74,0.00,,,0.00,0,Wunderground v.1.15,2013-03-13 05:39:00,
2013-03-13 01:44:00,43.6,35.5,29.91,ENE,60,6.0,9.0,73,0.00,,,0.00,0,Wunderground v.1.15,2013-03-13 05:44:00,
2013-03-13 01:54:00,43.4,35.3,29.91,NE,48,6.0,8.0,73,0.00,,,0.00,0,Wunderground v.1.15,2013-03-13 05:54:00,
2013-03-13 02:00:00,43.3,35.2,29.91,ENE,65,6.0,6.0,73,0.00,,,0.00,0,Wunderground v.1.15,2013-03-13 06:00:00,
2013-03-13 02:10:00,43.1,35.4,29.92,NE,50,7.0,8.0,74,0.00,,,0.00,0,Wunderground v.1.15,2013-03-13 06:10:00,
2013-03-13 02:19:00,42.8,35.1,29.91,NE,45,6.0,8.0,74,0.00,,,0.00,0,Wunderground v.1.15,2013-03-13 06:19:00,
2013-03-13 02:29:00,42.6,34.9,29.91,NE,44,7.0,8.0,74,0.00,,,0.00,0,Wunderground v.1.15,2013-03-13 06:29:00,
2013-03-13 02:35:00,42.5,35.1,29.91,NE,42,6.0,11.0,75,0.00,,,0.00,0,Wunderground v.1.15,2013-03-13 06:35:00,
2013-03-13 02:45:00,42.3,34.9,29.92,NE,51,8.0,10.0,75,0.00,,,0.00,0,Wunderground v.1.15,2013-03-13 06:45:00,
2013-03-13 02:55:00,42.2,34.5,29.92,NE,46,8.0,10.0,74,0.00,,,0.00,0,Wunderground v.1.15,2013-03-13 06:55:00,
2013-03-13 03:00:00,42.1,34.4,29.92,NNE,24,9.0,9.0,74,0.00,,,0.00,0,Wunderground v.1.15,2013-03-13 07:00:00,
2013-03-13 03:09:00,42.0,34.3,29.92,ENE,57,7.0,9.0,74,0.00,,,0.00,0,Wunderground v.1.15,2013-03-13 07:09:00,
2013-03-13 03:14:00,41.9,34.2,29.92,NE,55,8.0,9.0,74,0.00,,,0.00,0,Wunderground v.1.15,2013-03-13 07:14:00,
2013-03-13 03:25:00,41.7,34.0,29.92,NE,39,7.0,7.0,74,0.00,,,0.00,0,Wunderground v.1.15,2013-03-13 07:25:00,
2013-03-13 03:35:00,41.5,33.8,29.92,NE,45,6.0,6.0,74,0.00,,,0.00,0,Wunderground v.1.15,2013-03-13 07:35:00,
2013-03-13 03:45:00,41.3,33.6,29.92,NE,47,6.0,6.0,74,0.00,,,0.00,0,Wunderground v.1.15,2013-03-13 07:45:00,
2013-03-13 03:54:00,41.1,33.4,29.91,NNE,17,7.0,7.0,74,0.00,,,0.00,0,Wunderground v.1.15,2013-03-13 07:54:00,
2013-03-13 04:00:00,41.0,33.3,29.92,NE,52,7.0,7.0,74,0.00,,,0.00,0,Wunderground v.1.15,2013-03-13 08:00:00,
2013-03-13 04:09:00,40.9,33.2,29.92,NE,51,6.0,6.0,74,0.00,,,0.00,0,Wunderground v.1.15,2013-03-13 08:09:00,
2013-03-13 04:15:00,40.8,33.2,29.93,NE,42,6.0,6.0,74,0.00,,,0.00,0,Wunderground v.1.15,2013-03-13 08:15:00,
2013-03-13 04:24:00,40.5,32.9,29.93,NE,46,5.0,7.0,74,0.00,,,0.00,0,Wunderground v.1.15,2013-03-13 08:24:00,
2013-03-13 04:30:00,40.4,32.8,29.93,NE,54,5.0,7.0,74,0.00,,,0.00,0,Wunderground v.1.15,2013-03-13 08:30:00,
2013-03-13 04:39:00,40.5,32.9,29.93,NE,53,7.0,7.0,74,0.00,,,0.00,0,Wunderground v.1.15,2013-03-13 08:39:00,
2013-03-13 04:45:00,40.5,32.5,29.93,NE,54,6.0,7.0,73,0.00,,,0.00,0,Wunderground v.1.15,2013-03-13 08:45:00,
2013-03-13 04:55:00,40.5,32.5,29.94,ENE,57,5.0,9.0,73,0.00,,,0.00,0,Wunderground v.1.15,2013-03-13 08:55:00,
2013-03-13 05:00:00,40.5,32.5,29.94,NE,53,5.0,5.0,73,0.00,,,0.00,0,Wunderground v.1.15,2013-03-13 09:00:00,
2013-03-13 05:09:00,40.4,32.4,29.94,NE,53,4.0,7.0,73,0.00,,,0.00,0,Wunderground v.1.15,2013-03-13 09:09:00,
2013-03-13 05:15:00,40.2,32.2,29.94,NE,49,5.0,7.0,73,0.00,,,0.00,0,Wunderground v.1.15,2013-03-13 09:15:00,
2013-03-13 05:24:00,40.1,32.1,29.95,NE,50,5.0,6.0,73,0.00,,,0.00,0,Wunderground v.1.15,2013-03-13 09:24:00,
2013-03-13 05:35:00,40.0,32.0,29.95,NE,55,5.0,6.0,73,0.00,,,0.00,0,Wunderground v.1.15,2013-03-13 09:35:00,
2013-03-13 05:45:00,39.9,31.9,29.94,NE,52,4.0,4.0,73,0.00,,,0.00,0,Wunderground v.1.15,2013-03-13 09:45:00,
2013-03-13 05:54:00,39.7,31.8,29.95,NE,52,3.0,6.0,73,0.00,,,0.00,0,Wunderground v.1.15,2013-03-13 09:54:00,
2013-03-13 06:00:00,39.6,31.7,29.95,NE,52,3.0,3.0,73,0.00,,,0.00,0,Wunderground v.1.15,2013-03-13 10:00:00,
2013-03-13 06:05:00,39.5,31.6,29.95,NE,52,3.0,4.0,73,0.00,,,0.00,0,Wunderground v.1.15,2013-03-13 10:05:00,
2013-03-13 06:15:00,39.3,31.7,29.95,NE,51,4.0,5.0,74,0.00,,,0.00,0,Wunderground v.1.15,2013-03-13 10:15:00,
2013-03-13 06:25:00,39.1,31.5,29.95,NE,51,3.0,3.0,74,0.00,,,0.00,0,Wunderground v.1.15,2013-03-13 10:25:00,
2013-03-13 06:35:00,38.9,31.3,29.95,NE,51,2.0,3.0,74,0.00,,,0.00,0,Wunderground v.1.15,2013-03-13 10:35:00,
2013-03-13 06:45:00,38.7,31.1,29.95,NE,51,2.0,2.0,74,0.00,,,0.00,0,Wunderground v.1.15,2013-03-13 10:45:00,
2013-03-13 06:54:00,38.4,31.2,29.95,NE,51,2.0,3.0,75,0.00,,,0.00,0,Wunderground v.1.15,2013-03-13 10:54:00,
2013-03-13 07:00:00,38.3,31.1,29.95,NE,51,2.0,2.0,75,0.00,,,0.00,0,Wunderground v.1.15,2013-03-13 11:00:00,
2013-03-13 07:09:00,37.9,31.0,29.95,NE,51,3.0,3.0,76,0.00,,,0.00,0,Wunderground v.1.15,2013-03-13 11:09:00,
2013-03-13 07:14:00,37.8,30.9,29.95,NE,51,3.0,3.0,76,0.00,,,0.00,5,Wunderground v.1.15,2013-03-13 11:14:00,
2013-03-13 07:20:00,37.6,30.7,29.95,NE,51,2.0,3.0,76,0.00,,,0.00,9,Wunderground v.1.15,2013-03-13 11:20:00,
2013-03-13 07:29:00,37.5,30.9,29.95,NE,51,3.0,3.0,77,0.00,,,0.00,16,Wunderground v.1.15,2013-03-13 11:29:00,
2013-03-13 07:35:00,37.5,30.9,29.95,NE,51,3.0,3.0,77,0.00,,,0.00,19,Wunderground v.1.15,2013-03-13 11:35:00,
2013-03-13 07:44:00,37.5,30.9,29.96,NNE,30,3.0,3.0,77,0.00,,,0.00,32,Wunderground v.1.15,2013-03-13 11:44:00,
2013-03-13 07:55:00,37.8,31.2,29.96,NNE,30,4.0,6.0,77,0.00,,,0.00,47,Wunderground v.1.15,2013-03-13 11:55:00,
2013-03-13 08:00:00,38.0,31.4,29.96,NNE,29,4.0,4.0,77,0.00,,,0.00,39,Wunderground v.1.15,2013-03-13 12:00:00,
2013-03-13 08:10:00,38.3,31.7,29.97,NNE,29,4.0,4.0,77,0.00,,,0.00,76,Wunderground v.1.15,2013-03-13 12:10:00,
2013-03-13 08:19:00,38.7,32.1,29.97,NNE,28,4.0,4.0,77,0.00,,,0.00,144,Wunderground v.1.15,2013-03-13 12:19:00,
2013-03-13 08:25:00,39.1,32.2,29.97,NNE,28,4.0,4.0,76,0.00,,,0.00,162,Wunderground v.1.15,2013-03-13 12:25:00,
2013-03-13 08:34:00,39.8,32.8,29.97,NNE,28,4.0,4.0,76,0.00,,,0.00,193,Wunderground v.1.15,2013-03-13 12:34:00,
2013-03-13 08:45:00,40.7,32.7,29.97,NNE,28,4.0,5.0,73,0.00,,,0.00,244,Wunderground v.1.15,2013-03-13 12:45:00,
2013-03-13 08:54:00,41.4,32.7,29.97,NNE,28,4.0,5.0,71,0.00,,,0.00,272,Wunderground v.1.15,2013-03-13 12:54:00,
2013-03-13 09:00:00,41.8,32.7,29.97,NNE,12,5.0,5.0,70,0.00,,,0.00,294,Wunderground v.1.15,2013-03-13 13:00:00,
2013-03-13 09:10:00,42.2,33.1,29.97,NNE,13,4.0,5.0,70,0.00,,,0.00,327,Wunderground v.1.15,2013-03-13 13:10:00,
2013-03-13 09:19:00,43.1,32.9,29.97,NNE,23,4.0,7.0,67,0.00,,,0.00,357,Wunderground v.1.15,2013-03-13 13:19:00,
2013-03-13 09:24:00,43.4,33.2,29.97,NNE,22,4.0,7.0,67,0.00,,,0.00,374,Wunderground v.1.15,2013-03-13 13:24:00,
2013-03-13 09:35:00,43.7,32.7,29.96,NNE,30,5.0,6.0,65,0.00,,,0.00,404,Wunderground v.1.15,2013-03-13 13:35:00,
2013-03-13 09:40:00,44.2,32.8,29.96,NNE,29,4.0,5.0,64,0.00,,,0.00,422,Wunderground v.1.15,2013-03-13 13:40:00,
2013-03-13 09:50:00,45.2,32.5,29.96,NE,35,4.0,5.0,61,0.00,,,0.00,452,Wunderground v.1.15,2013-03-13 13:50:00,
2013-03-13 10:00:00,45.5,31.1,29.96,NE,34,5.0,6.0,57,0.00,,,0.00,482,Wunderground v.1.15,2013-03-13 14:00:00,
2013-03-13 10:09:00,45.8,30.5,29.96,ENE,61,6.0,6.0,55,0.00,,,0.00,506,Wunderground v.1.15,2013-03-13 14:09:00,
2013-03-13 10:20:00,46.3,31.0,29.97,NNE,26,6.0,6.0,55,0.00,,,0.00,531,Wunderground v.1.15,2013-03-13 14:20:00,
2013-03-13 10:29:00,46.7,30.9,29.96,NNE,33,6.0,6.0,54,0.00,,,0.00,563,Wunderground v.1.15,2013-03-13 14:29:00,
2013-03-13 10:35:00,46.5,30.3,29.96,ENE,63,6.0,10.0,53,0.00,,,0.00,577,Wunderground v.1.15,2013-03-13 14:35:00,
2013-03-13 10:44:00,46.9,29.7,29.95,NNE,22,6.0,6.0,51,0.00,,,0.00,599,Wunderground v.1.15,2013-03-13 14:44:00,
2013-03-13 10:55:00,47.4,29.7,29.95,NE,45,6.0,6.0,50,0.00,,,0.00,617,Wunderground v.1.15,2013-03-13 14:55:00,
2013-03-13 11:00:00,47.7,28.9,29.95,ENE,72,6.0,6.0,48,0.00,,,0.00,628,Wunderground v.1.15,2013-03-13 15:00:00,
2013-03-13 11:10:00,47.7,29.5,29.96,NE,55,5.0,8.0,49,0.00,,,0.00,640,Wunderground v.1.15,2013-03-13 15:10:00,
2013-03-13 11:15:00,47.8,28.5,29.95,East,91,5.0,8.0,47,0.00,,,0.00,663,Wunderground v.1.15,2013-03-13 15:15:00,
2013-03-13 11:20:00,47.8,28.5,29.95,East,92,6.0,6.0,47,0.00,,,0.00,671,Wunderground v.1.15,2013-03-13 15:20:00,
2013-03-13 11:30:00,48.3,30.0,29.94,NE,34,7.0,7.0,49,0.00,,,0.00,687,Wunderground v.1.15,2013-03-13 15:30:00,
2013-03-13 11:40:00,48.5,28.6,29.94,ENE,67,5.0,5.0,46,0.00,,,0.00,703,Wunderground v.1.15,2013-03-13 15:40:00,
2013-03-13 11:50:00,48.8,29.4,29.94,NNE,32,7.0,10.0,47,0.00,,,0.00,722,Wunderground v.1.15,2013-03-13 15:50:00,
2013-03-13 12:00:00,49.0,29.1,29.93,ENE,73,5.0,5.0,46,0.00,,,0.00,737,Wunderground v.1.15,2013-03-13 16:00:00,
2013-03-13 12:09:00,49.6,29.1,29.93,NNE,19,7.0,7.0,45,0.00,,,0.00,747,Wunderground v.1.15,2013-03-13 16:09:00,
2013-03-13 12:19:00,49.7,29.2,29.93,North,355,7.0,7.0,45,0.00,,,0.00,752,Wunderground v.1.15,2013-03-13 16:19:00,
2013-03-13 12:25:00,49.9,29.4,29.93,ENE,61,6.0,10.0,45,0.00,,,0.00,768,Wunderground v.1.15,2013-03-13 16:25:00,
2013-03-13 12:34:00,50.5,28.8,29.92,ENE,77,6.0,8.0,43,0.00,,,0.00,798,Wunderground v.1.15,2013-03-13 16:34:00,
2013-03-13 12:40:00,50.8,29.1,29.93,ENE,76,6.0,6.0,43,0.00,,,0.00,891,Wunderground v.1.15,2013-03-13 16:40:00,
2013-03-13 12:49:00,51.2,29.4,29.92,NE,38,7.0,7.0,43,0.00,,,0.00,241,Wunderground v.1.15,2013-03-13 16:49:00,
2013-03-13 12:55:00,50.0,28.4,29.92,NNE,12,7.0,12.0,43,0.00,,,0.00,272,Wunderground v.1.15,2013-03-13 16:55:00,
2013-03-13 13:00:00,49.9,28.8,29.92,NE,38,8.0,9.0,44,0.00,,,0.00,308,Wunderground v.1.15,2013-03-13 17:00:00,
2013-03-13 13:10:00,49.2,28.7,29.92,NNE,24,8.0,8.0,45,0.00,,,0.00,279,Wunderground v.1.15,2013-03-13 17:10:00,
2013-03-13 13:15:00,49.0,28.6,29.92,NNE,30,8.0,8.0,45,0.00,,,0.00,276,Wunderground v.1.15,2013-03-13 17:15:00,
2013-03-13 13:24:00,49.3,29.4,29.91,NE,48,7.0,7.0,46,0.00,,,0.00,223,Wunderground v.1.15,2013-03-13 17:24:00,
2013-03-13 13:34:00,50.5,29.9,29.91,North,5,7.0,12.0,45,0.00,,,0.00,383,Wunderground v.1.15,2013-03-13 17:34:00,
2013-03-13 13:45:00,51.1,29.9,29.91,North,5,10.0,11.0,44,0.00,,,0.00,262,Wunderground v.1.15,2013-03-13 17:45:00,
2013-03-13 13:55:00,51.2,30.6,29.90,North,5,7.0,8.0,45,0.00,,,0.00,923,Wunderground v.1.15,2013-03-13 17:55:00,
2013-03-13 14:00:00,51.8,29.4,29.90,North,355,7.0,7.0,42,0.00,,,0.00,956,Wunderground v.1.15,2013-03-13 18:00:00,
2013-03-13 14:10:00,51.7,28.7,29.90,NNE,17,9.0,9.0,41,0.00,,,0.00,918,Wunderground v.1.15,2013-03-13 18:10:00,
2013-03-13 14:20:00,51.6,29.2,29.89,North,355,7.0,7.0,42,0.00,,,0.00,220,Wunderground v.1.15,2013-03-13 18:20:00,
2013-03-13 14:29:00,50.5,27.0,29.89,North,5,11.0,11.0,40,0.00,,,0.00,246,Wunderground v.1.15,2013-03-13 18:29:00,
2013-03-13 14:35:00,51.0,27.5,29.89,North,355,10.0,12.0,40,0.00,,,0.00,297,Wunderground v.1.15,2013-03-13 18:35:00,
2013-03-13 14:45:00,50.7,28.4,29.89,NNE,13,9.0,12.0,42,0.00,,,0.00,236,Wunderground v.1.15,2013-03-13 18:45:00,
2013-03-13 14:55:00,51.2,27.7,29.88,NNE,16,9.0,9.0,40,0.00,,,0.00,178,Wunderground v.1.15,2013-03-13 18:55:00,
2013-03-13 15:00:00,50.8,27.9,29.88,North,351,8.0,9.0,41,0.00,,,0.00,301,Wunderground v.1.15,2013-03-13 19:00:00,
2013-03-13 15:09:00,51.2,26.4,29.88,NE,35,7.0,10.0,38,0.00,,,0.00,281,Wunderground v.1.15,2013-03-13 19:09:00,
2013-03-13 15:15:00,51.3,27.2,29.88,North,5,8.0,10.0,39,0.00,,,0.00,265,Wunderground v.1.15,2013-03-13 19:15:00,
2013-03-13 15:25:00,51.5,27.9,29.88,NE,51,8.0,16.0,40,0.00,,,0.00,295,Wunderground v.1.15,2013-03-13 19:25:00,
2013-03-13 15:35:00,50.8,26.7,29.88,North,360,10.0,12.0,39,0.00,,,0.00,216,Wunderground v.1.15,2013-03-13 19:35:00,
2013-03-13 15:44:00,50.4,28.1,29.88,NNE,27,9.0,9.0,42,0.00,,,0.00,241,Wunderground v.1.15,2013-03-13 19:44:00,
2013-03-13 15:50:00,50.4,28.1,29.87,NNE,24,7.0,7.0,42,0.00,,,0.00,260,Wunderground v.1.15,2013-03-13 19:50:00,
2013-03-13 16:00:00,51.0,28.7,29.88,NE,51,8.0,8.0,42,0.00,,,0.00,366,Wunderground v.1.15,2013-03-13 20:00:00,
2013-03-13 16:09:00,51.6,29.8,29.88,North,5,6.0,10.0,43,0.00,,,0.00,267,Wunderground v.1.15,2013-03-13 20:09:00,
2013-03-13 16:15:00,51.4,28.5,29.88,North,349,8.0,10.0,41,0.00,,,0.00,448,Wunderground v.1.15,2013-03-13 20:15:00,
2013-03-13 16:20:00,51.3,27.8,29.88,North,360,10.0,16.0,40,0.00,,,0.00,195,Wunderground v.1.15,2013-03-13 20:20:00,
2013-03-13 16:30:00,51.1,28.8,29.88,NNW,333,11.0,12.0,42,0.00,,,0.00,227,Wunderground v.1.15,2013-03-13 20:30:00,
2013-03-13 16:35:00,51.1,28.8,29.88,NNE,22,9.0,12.0,42,0.00,,,0.00,504,Wunderground v.1.15,2013-03-13 20:35:00,
2013-03-13 16:45:00,51.7,31.0,29.89,North,360,8.0,14.0,45,0.00,,,0.00,446,Wunderground v.1.15,2013-03-13 20:45:00,
2013-03-13 16:55:00,49.5,32.6,29.90,NNE,29,7.0,7.0,52,0.00,,,0.00,56,Wunderground v.1.15,2013-03-13 20:55:00,
2013-03-13 17:00:00,48.5,32.6,29.91,NNE,32,7.0,10.0,54,0.00,,,0.00,18,Wunderground v.1.15,2013-03-13 21:00:00,
2013-03-13 17:10:00,46.0,34.9,29.93,NE,43,14.0,14.0,65,0.00,,,0.01,12,Wunderground v.1.15,2013-03-13 21:10:00,
2013-03-13 17:20:00,43.2,35.5,29.92,NE,35,9.0,9.0,74,0.14,,,0.03,137,Wunderground v.1.15,2013-03-13 21:20:00,
2013-03-13 17:30:00,42.7,36.6,29.92,NE,52,4.0,4.0,79,0.04,,,0.03,146,Wunderground v.1.15,2013-03-13 21:30:00,
2013-03-13 17:35:00,42.8,37.4,29.92,NE,52,2.0,4.0,81,0.00,,,0.03,220,Wunderground v.1.15,2013-03-13 21:35:00,
2013-03-13 17:45:00,43.4,38.3,29.91,NE,51,2.0,3.0,82,0.00,,,0.03,234,Wunderground v.1.15,2013-03-13 21:45:00,
2013-03-13 17:55:00,43.8,38.0,29.91,NE,41,3.0,7.0,80,0.00,,,0.03,162,Wunderground v.1.15,2013-03-13 21:55:00,
2013-03-13 18:00:00,44.1,38.0,29.91,NE,40,4.0,4.0,79,0.00,,,0.03,146,Wunderground v.1.15,2013-03-13 22:00:00,
2013-03-13 18:10:00,44.5,38.1,29.91,NE,37,3.0,3.0,78,0.00,,,0.03,113,Wunderground v.1.15,2013-03-13 22:10:00,
2013-03-13 18:20:00,44.5,37.7,29.91,NE,37,3.0,3.0,77,0.00,,,0.03,79,Wunderground v.1.15,2013-03-13 22:20:00,
2013-03-13 18:30:00,44.6,37.8,29.91,NE,37,2.0,2.0,77,0.00,,,0.03,49,Wunderground v.1.15,2013-03-13 22:30:00,
2013-03-13 18:40:00,44.5,38.1,29.91,NE,37,1.0,1.0,78,0.00,,,0.03,30,Wunderground v.1.15,2013-03-13 22:40:00,
2013-03-13 18:50:00,44.2,37.8,29.91,NE,37,1.0,1.0,78,0.00,,,0.03,16,Wunderground v.1.15,2013-03-13 22:50:00,
2013-03-13 19:00:00,43.8,37.4,29.92,NE,37,1.0,1.0,78,0.00,,,0.03,7,Wunderground v.1.15,2013-03-13 23:00:00,
2013-03-13 19:10:00,43.5,37.4,29.92,NE,37,1.0,1.0,79,0.00,,,0.03,0,Wunderground v.1.15,2013-03-13 23:10:00,
2013-03-13 19:20:00,43.3,37.2,29.92,NE,37,0.0,0.0,79,0.00,,,0.03,0,Wunderground v.1.15,2013-03-13 23:20:00,
2013-03-13 19:30:00,43.0,37.3,29.93,NE,37,0.0,0.0,80,0.00,,,0.03,0,Wunderground v.1.15,2013-03-13 23:30:00,
2013-03-13 19:40:00,42.9,37.2,29.93,NE,37,1.0,1.0,80,0.00,,,0.03,0,Wunderground v.1.15,2013-03-13 23:40:00,
2013-03-13 19:45:00,42.8,37.4,29.93,NE,37,1.0,1.0,81,0.00,,,0.03,0,Wunderground v.1.15,2013-03-13 23:45:00,
2013-03-13 19:50:00,42.8,37.4,29.93,NE,37,1.0,1.0,81,0.00,,,0.03,0,Wunderground v.1.15,2013-03-13 23:50:00,
2013-03-13 19:55:00,42.8,37.4,29.93,NE,37,1.0,1.0,81,0.00,,,0.03,0,Wunderground v.1.15,2013-03-13 23:55:00,
2013-03-13 20:00:00,42.8,37.4,29.93,NE,37,0.0,0.0,81,0.00,,,0.03,0,Wunderground v.1.15,2013-03-14 00:00:00,
2013-03-13 20:10:00,42.6,37.2,29.93,NE,37,0.0,1.0,81,0.00,,,0.03,0,Wunderground v.1.15,2013-03-14 00:10:00,
2013-03-13 20:15:00,42.5,36.8,29.93,NE,37,0.0,1.0,80,0.00,,,0.03,0,Wunderground v.1.15,2013-03-14 00:15:00,
2013-03-13 20:25:00,42.5,36.8,29.93,NE,37,0.0,1.0,80,0.00,,,0.03,0,Wunderground v.1.15,2013-03-14 00:25:00,
2013-03-13 20:35:00,42.3,36.6,29.94,NE,37,0.0,1.0,80,0.00,,,0.03,0,Wunderground v.1.15,2013-03-14 00:35:00,
2013-03-13 20:45:00,42.1,36.4,29.94,NE,37,1.0,2.0,80,0.00,,,0.03,0,Wunderground v.1.15,2013-03-14 00:45:00,
2013-03-13 20:55:00,42.0,36.3,29.95,NNE,20,4.0,5.0,80,0.00,,,0.03,0,Wunderground v.1.15,2013-03-14 00:55:00,
2013-03-13 21:00:00,42.1,36.1,29.95,NNE,20,4.0,4.0,79,0.00,,,0.03,0,Wunderground v.1.15,2013-03-14 01:00:00,
2013-03-13 21:10:00,42.2,35.5,29.95,NNE,20,4.0,6.0,77,0.00,,,0.03,0,Wunderground v.1.15,2013-03-14 01:10:00,
2013-03-13 21:19:00,42.1,34.1,29.95,NE,36,6.0,6.0,73,0.00,,,0.03,0,Wunderground v.1.15,2013-03-14 01:19:00,
2013-03-13 21:25:00,42.0,33.6,29.96,NE,44,5.0,6.0,72,0.00,,,0.03,0,Wunderground v.1.15,2013-03-14 01:25:00,
2013-03-13 21:35:00,42.2,33.5,29.96,NE,43,5.0,5.0,71,0.00,,,0.03,0,Wunderground v.1.15,2013-03-14 01:35:00,
2013-03-13 21:40:00,42.4,32.6,29.96,NE,40,7.0,7.0,68,0.00,,,0.03,0,Wunderground v.1.15,2013-03-14 01:40:00,
2013-03-13 21:45:00,42.5,31.6,29.96,NE,36,6.0,7.0,65,0.00,,,0.03,0,Wunderground v.1.15,2013-03-14 01:45:00,
2013-03-13 21:55:00,42.5,30.4,29.96,NNE,29,4.0,7.0,62,0.00,,,0.03,0,Wunderground v.1.15,2013-03-14 01:55:00,
2013-03-13 22:00:00,42.3,29.8,29.97,NNE,22,5.0,5.0,61,0.00,,,0.03,0,Wunderground v.1.15,2013-03-14 02:00:00,
2013-03-13 22:10:00,42.0,29.9,29.97,NNE,27,4.0,6.0,62,0.00,,,0.03,0,Wunderground v.1.15,2013-03-14 02:10:00,
2013-03-13 22:15:00,41.9,29.4,29.98,NNE,33,5.0,7.0,61,0.00,,,0.03,0,Wunderground v.1.15,2013-03-14 02:15:00,
2013-03-13 22:25:00,41.8,29.3,29.98,NE,40,6.0,6.0,61,0.00,,,0.03,0,Wunderground v.1.15,2013-03-14 02:25:00,
2013-03-13 22:30:00,41.8,28.9,29.98,NNE,30,8.0,11.0,60,0.00,,,0.03,0,Wunderground v.1.15,2013-03-14 02:30:00,
2013-03-13 22:40:00,41.8,29.3,29.98,NNE,15,8.0,8.0,61,0.00,,,0.03,0,Wunderground v.1.15,2013-03-14 02:40:00,
2013-03-13 22:50:00,41.8,28.9,29.98,NNE,33,7.0,7.0,60,0.00,,,0.03,0,Wunderground v.1.15,2013-03-14 02:50:00,
2013-03-13 23:00:00,41.6,28.7,29.98,NE,47,8.0,9.0,60,0.00,,,0.03,0,Wunderground v.1.15,2013-03-14 03:00:00,
2013-03-13 23:10:00,41.5,27.4,29.98,NNE,30,9.0,9.0,57,0.00,,,0.03,0,Wunderground v.1.15,2013-03-14 03:10:00,
2013-03-13 23:19:00,41.4,27.3,29.99,North,9,7.0,10.0,57,0.00,,,0.03,0,Wunderground v.1.15,2013-03-14 03:19:00,
2013-03-13 23:25:00,41.4,27.3,29.99,NNE,33,7.0,10.0,57,0.00,,,0.03,0,Wunderground v.1.15,2013-03-14 03:25:00,
2013-03-13 23:35:00,41.3,27.2,29.99,NNE,24,7.0,8.0,57,0.00,,,0.03,0,Wunderground v.1.15,2013-03-14 03:35:00,
2013-03-13 23:40:00,41.2,27.1,29.99,NE,39,7.0,12.0,57,0.00,,,0.03,0,Wunderground v.1.15,2013-03-14 03:40:00,
2013-03-13 23:50:00,41.1,26.6,29.99,NE,35,8.0,10.0,56,0.00,,,0.03,0,Wunderground v.1.15,2013-03-14 03:50:00,
2013-03-13 23:55:00,41.0,26.5,29.99,NNE,15,9.0,13.0,56,0.00,,,0.03,0,Wunderground v.1.15,2013-03-14 03:55:00,